Tracking 23752 objects as of 24-Oct-2021
HD Live streaming from Space Station
objects crossing your sky now

BREEZE-M DEB

Track BREEZE-M DEB now!
10-day predictions


NORAD ID: 38604
Int'l Code: 2008-011BB
Perigee: 591.7 km
Apogee: 26,485.6 km
Inclination: 48.8 °
Period: 466.0 minutes
Semi major axis: 19909 km
RCS: 0.0351 m2 (small)
Launch date: March 14, 2008
Source: Commonwealth of Independent States (former USSR) (CIS)
Launch site: TYURATAM MISSILE AND SPACE COMPLEX (TTMTR)

Note: This is SATELLITE DEBRIS
aabbcc
Your satellite tracking list
Your tracking list is empty




NASA's NSSDC Master Catalog

Two Line Element Set (TLE):
1 38604U 08011BB  21294.33835542  .00000692  00000-0  46056-2 0  9992
2 38604  48.8282 167.5456 6502851 122.0987 317.1765  3.09035566 98986
Source of the keplerian elements: AFSPC